Weather Roundup
Issued by NWS Chicago, IL

Home | Current Version | Previous Version | Text Only | Print | Product List | Glossary On
Versions: 1 2 3 4 5 6 7 8 9 10 11 12 13 14 15 16 17 18 19 20 21 22 23 24 25 26 27 28 29 30 31 32 33 34 35 36 37 38 39 40 41 42 43 44 45 46 47 48 49 50
000
NZUS59 KLOT 281921
HRRLOT

CHICAGO AREA WEATHER ROUNDUP
NATIONAL WEATHER SERVICE CHICAGO/ROMEOVILLE IL
200 PM CDT THU MAY 28 2015

NOTE: "FAIR" INDICATES FEW OR NO CLOUDS BELOW 12,000 FEET WITH NO
SIGNIFICANT WEATHER AND/OR OBSTRUCTIONS TO VISIBILITY.

* THESE STATIONS ARE NOT UNDER NWS QUALITY CONTROL. THEY ALSO MAY NOT
  REPORT WEATHER SUCH AS PRECIPITATION OR FOG.

ILZ005-006-012>014-019>023-282000-
NORTHEAST ILLINOIS

CITY           SKY/WX    TMP DP  RH WIND       PRES   REMARKS
OHARE          MOSUNNY   82  56  40 E13G20    30.16F HX  82
MIDWAY         PTSUNNY   83  58  42 E15G21    30.16F HX  83
AURORA         MOSUNNY   82  56  40 SE16      30.17F HX  82
LANSING*       SUNNY     81  54  40 SE12      30.16F HX  80
JOLIET*        MOSUNNY   83  55  38 SE8G16    30.16S HX  82
WAUKEGAN       PTSUNNY   72  56  57 SE14      30.18F
DUPAGE AIRPORT MOSUNNY   81  55  40 S10       30.16F HX  81
WHEELING       MOSUNNY   80  52  37 SE10      30.18F HX  80
KANKAKEE*      SUNNY     82  53  36 SE14      30.16F HX  81
MORRIS*        SUNNY     82  54  36 SE12G21   30.15F HX  81
LEWIS AIRPORT* SUNNY     82  53  36 SE9       30.16F HX  81
NORTHERLY IS     N/A     66  56  70 E3          N/A
$$

WIZ051-052-058>065-066-070>072-282000-
SOUTHEAST WISCONSIN

CITY           SKY/WX    TMP DP  RH WIND       PRES   REMARKS
MILWAUKEE      PTSUNNY   77  58  51 SE15      30.17S
KENOSHA*       PTSUNNY   77  58  51 SE16      30.18F
RACINE*        MOSUNNY   74  55  51 SE14      30.20S
BURLINGTON     PTSUNNY   78  53  40 SE9       30.16F
WAUKESHA       MOSUNNY   79  55  44 S6        30.17F
WEST BEND      MOSUNNY   79  54  41 SE6       30.15S
$$

INZ001>003-010>013-019-020-282000-
NORTHWEST INDIANA

CITY           SKY/WX    TMP DP  RH WIND       PRES   REMARKS
GARY*          MOSUNNY   79  59  50 NE10      30.18F HX  80
MICHIGAN CITY* NOT AVBL
RENSSELAER*    NOT AVBL
VALPARAISO     SUNNY     82  54  37 E13G20    30.18F HX  81
$$

LMZ740>746-282000-
SOUTHERN LAKE MICHIGAN

STATION/POSITION TIME  SKY/WX   TEMP WIND        PRES    VSBY
                                AIR  DIR/SP/G
                 (UTC)          (F)  (DEG/KT/KT) (MB)    (MI)
HARRISON CRIB    1900            66   80/ 14/ 14   N/A
BURNHAM HARBOR   1900            67   20/  3/  6   N/A
CALUMET HARBOR   1800            65   50/  8/ 11   N/A
BURNS HARBOR     1800            67   60/  5/ 10 1022.7F
MICHIGAN CITY    1900            78  110/  9/ 11   N/A
$$

ABBREVIATIONS USED IN REMARKS
   TC - TEMPERATURE IN CELSIUS
  WCI - WIND CHILL INDEX
   HX - HEAT INDEX
  VSB - VISIBILITY
$$


USA.gov is the U.S. government's official web portal to all federal, state and local government web resources and services.